Printer-friendly version

IAU Minor Planet Center

Minor Planet Center

MPEC 2005-V94 : COMET P/2005 V1 (BERNARDI)

The following Minor Planet Electronic Circular may be linked-to from your own Web pages, but must not otherwise be redistributed electronically.


Read MPEC 2005-V93 Read MPEC 2005-V95


M.P.E.C. 2005-V94                                Issued 2005 Nov. 14, 20:53 UT

     The Minor Planet Electronic Circulars contain information on unusual
         minor planets and routine data on comets.  They are published
   on behalf of Commission 20 of the International Astronomical Union by the
          Minor Planet Center, Smithsonian Astrophysical Observatory,
                          Cambridge, MA 02138, U.S.A.

                  Supported in part by the Brinson Foundation
                  Supported in part by the TABASGO Foundation
             Prepared using the Tamkin Foundation Computer Network

                              MPC@CFA.HARVARD.EDU
          URL http://cfa-www.harvard.edu/iau/mpc.html  ISSN 1523-6714

                          COMET P/2005 V1 (BERNARDI)

Observations:
    PK05V010  C2005 11 08.20966 11 45 17.39 +07 43 42.8                 EV094204
    PK05V010  C2005 11 12.19227 11 52 06.89 +07 21 19.4          20.0 N EV094204

Observer details:
204 Schiaparelli Observatory.  Observer L. Buzzi.  0.60-m f/4.64 Newtonian
    reflector + CCD.

Orbital elements:
    P/2005 V1 (Bernardi)
T 2005 Aug. 17.198 TT                                   MPC
q   2.36617              (2000.0)            P               Q
n   0.091645       Peri.  358.842       -0.625608       -0.752332
a   4.87227        Node   129.843       +0.717907       -0.658743
e   0.51436        Incl.   15.596       +0.305327       +0.007372
P  10.8
From 17 observations 2005 Nov. 1-12.

Ephemeris:
    P/2005 V1 (Bernardi)
Date    TT    R. A. (2000) Decl.     Delta      r     Elong.  Phase   m1    m2
2005 11 06    11 41.45   +07 56.6    2.948    2.452    51.2    18.4  19.7
2005 11 16    11 58.52   +07 01.0    2.869    2.474    57.0    19.6  19.7
2005 11 26    12 14.80   +06 13.5    2.785    2.498    63.1    20.6  19.7
2005 12 06    12 30.15   +05 35.8    2.696    2.524    69.4    21.4  19.7
2005 12 16    12 44.41   +05 09.9    2.604    2.552    76.1    22.0  19.6
2005 12 26    12 57.41   +04 57.4    2.509    2.582    83.1    22.2  19.6

Brian G. Marsden             (C) Copyright 2005 MPC           M.P.E.C. 2005-V94

Read MPEC 2005-V93 Read MPEC 2005-V95


Our Web policy. Index to the CBAT/MPC/ICQ pages.


Valid HTML 4.01!